This demonstration page uses our WeatherBlox Daily Observations layout. Learn more.

Left ArrowRight Arrow

30.00354, -91.81873

Hourly Observations for July 1, 2022

Temp ( °F °C ) Dew Point ( °F °C ) Humidity (%) Winds ( mph kmh ) Pressure ( in mb ) Visibility ( mi km ) Precip ( " mm )
12:53 am 00:53 Clear with Light Rain 77 25 74 23.3 90 90 Calm 30.02 1017 10 16 0.01 0.25
1:09 am 01:09 Mostly Clear with Light Rain 77 25 74 23.3 90 90 E 5 7 30.02 1017 10 16 0.00 0.00
1:53 am 01:53 Clear 77 25 74 23.3 90 90 E 3 6 30.01 1016 10 16 0.00 0.00
2:53 am 02:53 Clear 77 25 74 23.3 90 90 ENE 3 6 30.00 1016 10 16 0.00 0.00
3:53 am 03:53 Clear 77 25 74 23.3 90 90 E 3 6 30.00 1016 10 16 0.00 0.00
4:13 am 04:13 Partly Cloudy with Rain 76 24.4 74 23.3 94 94 VRB 3 6 30.02 1017 3 4 0.07 1.78
4:26 am 04:26 Mostly Cloudy with Light Rain 77 25 74 23.3 90 90 Calm 30.01 1016 8 13 0.09 2.29
4:41 am 04:41 Mostly Cloudy with Heavy Rain 76 24.4 71 21.7 85 85 Calm 30.00 1016 2 3 0.22 5.59
4:49 am 04:49 Mostly Cloudy with Light Rain 77 25 72 22 83 83 SW 3 6 30.00 1016 10 16 0.22 5.59
4:53 am 04:53 Mostly Cloudy with Light Rain 77 25 72 22.2 85 85 S 3 6 30.00 1016 10 16 0.22 5.59
5:53 am 05:53 Mostly Clear 75 23.9 71 21.7 88 88 Calm 29.99 1016 10 16 0.01 0.25
6:53 am 06:53 Sunny 77 25 75 23.9 94 94 ENE 6 9 30.00 1016 10 16 0.00 0.00
7:53 am 07:53 Mostly Sunny 78 25.6 76 24.4 93 93 E 7 11 30.01 1016 10 16 0.00 0.00
8:37 am 08:37 Sunny with Thunderstorms 80 26.7 76 24.4 87 87 ESE 6 9 30.03 1017 10 16 0.00 0.00
8:47 am 08:47 Mostly Cloudy with Light Rain 79 26 73 23 84 84 E 6 9 30.03 1017 9 14 0.00 0.00
8:53 am 08:53 Mostly Cloudy with Light Rain 78 25.6 72 22.2 82 82 VRB 3 6 30.03 1017 3 5 0.02 0.51
9:16 am 09:16 Cloudy with Nearby Thunderstorms 78 25.6 71 21.7 79 79 WSW 8 13 30.04 1017 10 16 0.00 0.00
9:35 am 09:35 Cloudy with Nearby Thunderstorms 75 23.9 71 21.7 88 88 WSW 13 20 30.04 1017 2 3 0.12 3.05
9:47 am 09:47 Cloudy with Nearby Thunderstorms 75 24 72 22 89 89 SW 7 11 30.04 1017 3 5 0.19 4.83
9:51 am 09:51 Cloudy with Thunderstorms 75 24 72 22 89 89 SSW 8 13 30.04 1017 4 6 0.20 5.08
9:53 am 09:53 Cloudy with Thunderstorms 75 23.9 71 21.7 88 88 S 8 13 30.04 1017 4 6 0.20 5.08
10:26 am 10:26 Mostly Cloudy with Nearby Thunderstorms 73 22.8 71 21.7 94 94 S 6 9 30.06 1018 4 6 0.06 1.52
10:53 am 10:53 Mostly Cloudy with Rain 73 22.8 71 21.7 94 94 E 3 6 30.05 1018 3 5 0.15 3.81
11:53 am 11:53 Cloudy with Light Rain 75 23.9 72 22.2 90 90 ENE 5 7 30.04 1017 10 16 0.09 2.29
12:34 pm 12:34 Partly Cloudy 76 24.4 73 22.8 91 91 NE 7 11 30.05 1018 10 16 0.00 0.00
12:53 pm 12:53 Mostly Sunny 76 24.4 73 22.8 91 91 NNE 7 11 30.04 1017 10 16 0.00 0.00
1:53 pm 13:53 Sunny 79 26.1 73 22.8 82 82 Calm 30.03 1017 10 16 0.00 0.00
2:53 pm 14:53 Cloudy with Light Rain 79 26.1 74 23.3 85 85 Calm 30.04 1017 10 16 0.01 0.25
3:53 pm 15:53 Cloudy with Rain 79 26.1 74 23.3 85 85 NE 3 6 30.02 1017 7 11 0.01 0.25
4:53 pm 16:53 Mostly Cloudy 79 26.1 73 22.8 82 82 ESE 3 6 30.00 1016 10 16 0.03 0.76
5:53 pm 17:53 Mostly Cloudy with Light Rain 79 26.1 76 24.4 90 90 S 3 6 29.96 1015 10 16 0.03 0.76
5:59 pm 17:59 Mostly Cloudy 79 26.1 76 24.4 90 90 SSE 6 9 29.96 1014 10 16 0.00 0.00
6:21 pm 18:21 Partly Cloudy 79 26.1 76 24.4 90 90 SSE 3 6 29.96 1014 10 16 0.00 0.00
6:39 pm 18:39 Mostly Cloudy 79 26.1 76 24.4 90 90 S 3 6 29.97 1015 10 16 0.00 0.00
6:53 pm 18:53 Partly Cloudy 79 26.1 76 24.4 90 90 Calm 29.97 1015 10 16 0.00 0.00
7:27 pm 19:27 Mostly Sunny 79 26.1 76 24.4 90 90 SSE 5 7 29.97 1015 10 16 0.00 0.00
7:53 pm 19:53 Sunny 78 25.6 75 23.9 90 90 Calm 29.97 1015 10 16 0.00 0.00
8:53 pm 20:53 Clear 77 25 74 23.3 90 90 ESE 5 7 29.97 1015 10 16 0.00 0.00
9:53 pm 21:53 Clear 76 24.4 73 22.8 91 91 ENE 5 7 29.98 1015 10 16 0.00 0.00
10:53 pm 22:53 Clear 76 24.4 73 22.8 91 91 ESE 5 7 29.99 1016 10 16 0.00 0.00
11:53 pm 23:53 Clear 76 24.4 73 22.8 91 91 E 5 7 29.98 1015 10 16 0.00 0.00

Powered by AerisWeather